Tracking 30970 objects as of 3-Jul-2025
HD Live streaming from Space Station
objects crossing your sky now

ONEWEB-0673

Track ONEWEB-0673 now!
10-day predictions
ONEWEB-0673 is classified as:


NORAD ID: 55832
Int'l Code: 2023-029AN
Perigee: 1,191.3 km
Apogee: 1,194.5 km
Inclination: 87.9 °
Period: 109.1 minutes
Semi major axis: 7563 km
RCS: Unknown
Launch date: March 9, 2023
Source: United Kingdom (UK)
Launch site: AIR FORCE EASTERN TEST RANGE (AFETR)
Your satellite tracking list
Your tracking list is empty




NASA's NSSDC Master Catalog

Two Line Element Set (TLE):
1 55832U 23029AN  25183.82764402  .00000059  00000-0  11527-3 0  9994
2 55832  87.9215  14.3966 0002094  90.1924 269.9448 13.19728920112824
Source of the keplerian elements: AFSPC